SCP
0 0 0 0 0 0 0 0 0 0 0 0 1 1 1 1 1 1 1 1 1 1 1 1 1 1 1 1 1 1 1 1 1 1 1 0 0 0 0 0 0 0 0 0
0 0 0 0 0 0 0 0 0 0 0 1 1 1 1 1 1 1 1 1 1 1 1 1 1 1 1 1 1 1 1 1 1 1 1 0 0 0 0 0 0 0 0 0
0 0 0 0 0 0 0 0 0 0 0 1 1 1 1 1 1 1 1 1 1 1 2 2 1 1 1 1 1 1 1 1 1 1 1 1 0 0 0 0 0 0 0 0
0 0 0 0 0 0 0 0 0 0 1 1 1 1 1 1 1 1 1 1 1 1 2 2 1 1 1 1 1 1 1 1 1 1 1 1 0 0 0 0 0 0 0 0
0 0 0 0 0 0 0 0 0 0 1 1 1 1 1 1 1 1 0 0 0 1 2 2 1 1 1 1 1 1 1 1 1 1 1 1 1 0 0 0 0 0 0 0
0 0 0 0 1 0 0 0 0 0 1 1 1 1 1 1 1 0 0 0 0 1 1 1 1 1 1 1 1 1 1 1 1 1 1 1 1 1 0 0 0 0 0 0
0 0 0 1 1 1 0 0 0 0 0 1 1 1 1 1 0 0 0 0 0 0 1 1 1 1 1 1 1 1 1 1 1 2 2 2 1 1 1 1 1 1 0 0
0 0 0 1 1 0 0 0 0 0 0 1 1 1 1 0 0 0 0 0 0 0 1 1 1 1 1 1 2 2 2 2 2 2 3 3 2 1 1 1 1 1 0 0
0 0 1 1 1 0 0 0 0 0 0 1 1 1 0 0 0 0 1 1 1 1 1 1 1 1 2 2 2 2 2 2 3 3 4 3 3 2 1 1 1 1 1 0
0 1 1 1 1 0 0 0 0 0 0 0 0 0 0 0 0 1 1 1 1 1 1 1 1 2 2 2 2 2 2 2 3 3 4 4 3 2 1 1 1 1 1 1
0 1 1 1 0 0 0 0 0 0 0 0 0 0 0 0 1 2 2 2 2 2 2 2 2 2 2 2 2 2 2 2 2 3 4 4 3 2 1 1 1 1 1 1
0 0 0 0 0 0 0 0 0 0 0 0 0 0 1 1 2 3 3 3 3 2 2 2 2 2 2 2 2 2 2 2 2 3 3 3 2 2 1 1 1 1 1 2
0 0 0 0 0 0 0 0 0 0 0 0 0 0 1 2 3 4 4 4 3 3 3 2 2 2 2 2 2 3 3 3 3 3 3 3 2 2 2 2 1 1 2 2
0 0 0 0 0 0 0 0 0 0 0 0 0 1 1 3 4 4 4 4 4 4 4 4 3 2 2 2 3 3 3 3 3 3 3 3 3 3 2 2 2 2 1 1
0 0 0 0 0 1 1 1 0 0 0 0 1 1 2 3 4 4 3 3 4 5 5 5 5 4 2 2 3 4 4 4 4 4 4 4 4 4 4 4 3 2 2 2
0 0 0 1 1 1 2 2 1 1 1 1 2 3 4 5 4 3 2 3 3 4 5 5 6 5 4 3 3 4 5 4 5 5 6 6 6 6 6 6 4 3 2 2
0 0 0 1 1 2 2 3 3 2 2 3 4 5 5 5 4 3 2 2 3 3 3 5 6 6 6 5 5 6 6 6 5 6 7 9 10 10 8 6 4 3 3 3
0 0 1 1 1 1 2 2 3 4 4 4 4 4 4 4 3 3 3 3 3 4 4 5 6 7 8 7 7 7 7 6 6 6 8 10 12 12 9 5 4 4 4 4
0 1 1 1 1 1 1 2 2 4 5 4 3 3 3 2 2 3 3 4 6 7 6 6 7 8 8 8 8 8 7 7 6 6 8 11 13 14 10 6 4 5 5 5
1 1 1 1 1 1 1 1 1 2 3 3 3 2 2 2 2 2 3 5 7 9 8 7 7 7 7 7 7 7 7 7 7 7 9 12 15 15 11 6 4 5 5 5
1 1 1 1 1 1 1 1 1 1 2 2 2 2 2 2 2 2 3 4 6 7 7 6 6 6 6 6 6 6 6 6 6 6 9 13 16 16 11 6 4 5 5 6
1 1 1 1 1 1 1 1 1 1 2 2 3 2 2 2 2 2 3 3 4 5 5 5 5 5 5 5 5 5 5 4 5 6 10 13 15 14 10 6 5 5 6 6
0 0 1 1 1 1 1 1 1 1 2 3 2 2 2 2 2 2 2 3 4 5 5 6 6 5 5 4 4 4 4 4 5 8 11 13 13 11 8 5 5 5 6 6
0 0 1 2 2 2 1 1 1 2 2 2 2 2 3 2 2 2 2 3 4 5 5 5 5 4 4 3 3 3 3 4 6 9 12 12 11 8 6 4 4 5 5 6
0 1 2 2 2 2 2 2 2 2 3 3 3 3 3 3 2 2 2 2 2 3 3 3 2 2 2 2 2 2 4 5 7 10 12 11 9 6 4 4 3 4 4 4
1 1 1 2 1 1 2 2 2 3 3 3 3 3 3 3 3 2 2 2 2 1 1 1 1 1 2 2 2 2 4 6 8 10 11 10 8 6 4 3 3 3 3 3
Wind_Speed
3 4 2 5 6 4 4 3 2 3 2 4 4 4 6 8 7 7 7 7 7 8 6 4 4 5 5 5 4 5 4 4 4 2 2 2 1 1 1 1 2 2 3 4
4 3 6 4 3 2 3 2 1 1 1 3 2 3 4 8 11 10 9 9 9 6 4 5 5 5 6 6 5 5 5 5 4 3 2 2 2 1 1 1 1 2 3 3
7 5 4 4 2 2 1 4 4 2 2 2 2 3 2 4 5 5 6 7 7 9 9 7 7 7 6 6 7 6 5 4 4 4 3 2 2 2 1 1 1 2 3 3
4 4 4 3 3 4 3 3 4 4 4 1 1 2 5 3 4 7 8 8 9 9 9 8 8 8 8 8 6 5 5 5 4 5 4 4 3 2 2 1 1 1 2 2
5 4 4 4 4 5 3 3 4 3 3 1 1 1 7 1 5 9 10 11 10 10 10 11 11 10 8 7 7 6 5 4 4 5 5 5 3 2 1 1 1 1 1 2
4 2 4 5 3 5 6 7 7 6 5 1 3 2 6 4 7 7 9 10 10 10 10 9 8 7 6 6 6 6 5 4 4 5 5 5 5 4 3 2 2 1 1 1
2 1 1 3 4 2 5 7 4 4 3 4 2 2 9 7 6 7 7 9 9 9 10 9 9 9 8 8 7 6 6 5 5 5 5 5 5 5 5 4 3 3 2 1
3 4 4 3 6 6 4 8 8 5 4 4 1 5 8 5 4 4 4 5 7 8 9 10 11 10 10 9 9 8 7 6 5 5 5 5 5 4 3 4 3 4 3 3
6 5 4 2 3 9 6 4 6 7 2 0 5 7 9 2 1 1 1 3 5 7 9 9 10 10 10 9 9 9 9 7 6 6 5 4 4 4 4 3 3 3 3 3
7 3 3 2 4 3 6 8 6 6 6 3 4 5 6 5 4 2 3 4 4 5 6 7 9 10 10 9 9 8 8 8 7 6 6 5 5 5 4 3 4 3 3 3
5 5 2 2 3 5 4 4 5 5 6 7 3 8 7 7 6 5 5 5 6 6 7 7 8 9 9 8 8 8 8 7 6 6 6 5 4 4 4 4 4 4 3 4
3 6 2 4 3 2 5 7 8 6 4 4 5 9 5 5 5 4 4 3 4 5 6 6 7 8 8 8 8 9 8 8 7 7 6 5 4 4 4 4 4 4 4 4
4 6 3 4 4 2 2 3 4 6 6 5 5 8 4 1 2 2 3 2 3 4 4 4 5 7 8 9 9 8 8 8 7 6 6 5 5 5 5 4 4 4 4 3
6 5 7 9 8 4 2 3 4 6 5 5 8 7 6 4 3 2 2 2 2 3 4 4 5 6 7 7 7 7 7 6 6 6 6 6 6 6 5 4 4 4 4 4
5 4 2 3 3 3 3 5 6 6 8 9 8 7 9 7 6 4 3 3 3 2 2 4 5 5 5 6 6 6 6 6 6 6 6 6 6 5 5 4 4 4 4 4
4 4 2 1 1 2 2 3 6 5 5 4 3 6 6 3 2 1 2 3 3 3 4 4 4 4 5 6 6 5 5 5 5 6 6 5 4 4 4 4 4 4 3 3
2 4 3 1 2 2 3 5 5 4 3 6 6 6 2 1 3 4 3 3 4 4 3 3 4 5 4 4 4 5 5 5 5 5 4 4 5 4 4 4 4 4 4 3
5 4 3 2 2 4 7 2 3 3 2 3 3 3 3 3 2 0 1 3 4 4 4 3 2 3 2 2 2 3 3 4 4 4 4 3 4 4 3 4 4 4 3 3
5 7 4 3 2 4 4 2 3 3 3 2 3 2 2 3 3 3 2 2 3 3 3 2 3 3 3 3 3 4 4 3 3 3 3 3 4 4 4 4 4 4 3 3
4 5 5 4 3 5 6 3 2 3 2 2 3 4 4 3 2 2 0 2 3 3 3 3 4 4 4 3 4 5 4 3 2 1 2 2 3 3 4 4 3 2 3 3
4 4 3 3 3 6 4 4 1 3 6 2 3 4 4 4 4 3 3 3 3 3 4 4 4 4 3 3 5 5 4 2 1 1 1 1 1 1 2 2 2 2 2 1
3 3 2 3 2 5 4 2 2 4 2 0 1 2 4 5 5 5 5 4 4 4 4 4 4 3 2 3 4 4 2 1 2 2 1 1 1 1 1 1 1 1 1 1
2 4 4 5 5 4 3 3 3 1 1 0 1 2 6 7 6 5 4 4 3 4 3 3 4 4 3 3 3 3 0 1 3 2 1 1 1 1 1 1 1 0 1 1
1 1 2 0 3 3 3 2 2 2 2 2 3 4 5 7 6 6 5 4 4 3 3 3 4 4 3 2 2 1 1 2 3 2 1 1 1 0 0 1 1 1 1 2
2 1 2 0 3 3 4 3 3 4 5 5 5 5 5 8 6 6 5 4 3 3 3 3 3 3 2 3 2 2 2 2 2 1 1 1 0 0 1 1 1 2 2 3
3 4 4 5 5 3 2 2 2 3 4 5 6 5 5 6 6 6 5 3 3 3 2 3 3 3 3 3 3 3 2 2 2 1 1 0 0 0 0 0 2 2 2 2
Wind_Direction
77 86 175 206 192 188 178 164 207 244 208 155 206 221 195 185 190 197 200 199 203 211 207 180 170 163 155 154 158 162 157 156 142 131 139 142 155 155 148 172 165 158 156 150
58 234 218 179 167 150 141 140 195 314 66 143 203 259 214 195 202 202 202 203 204 203 186 180 169 163 164 167 169 167 168 166 164 161 152 148 140 147 154 154 143 156 160 160
182 223 175 141 139 121 201 184 195 177 73 52 88 327 247 227 210 212 213 205 202 198 192 187 181 179 174 177 179 181 177 171 170 156 125 102 84 73 85 118 167 173 166 164
212 227 163 154 187 154 251 225 165 138 116 301 131 265 277 229 221 219 218 210 206 203 191 187 184 184 186 188 180 175 173 170 167 154 150 152 158 171 197 187 186 178 164 164
224 191 167 184 202 156 190 105 99 108 118 60 6 155 285 233 233 234 223 217 209 199 190 189 190 190 188 182 175 171 165 171 170 165 165 162 164 176 164 146 159 176 169 178
225 215 181 189 161 143 131 77 57 51 71 10 254 173 276 236 223 232 220 216 209 196 191 192 187 177 176 173 170 168 168 181 175 170 170 173 174 171 161 169 179 192 192 196
321 297 249 136 105 80 104 96 48 6 16 255 256 201 252 251 237 227 218 212 201 192 187 183 178 178 179 178 177 174 174 186 180 177 181 185 185 179 183 187 192 191 193 207
167 259 232 183 164 166 165 140 154 184 212 269 294 234 256 271 264 246 220 198 185 186 184 185 185 184 184 183 181 177 180 188 185 185 192 190 188 188 196 196 193 198 206 214
168 238 278 219 163 137 135 167 156 131 135 218 276 282 300 301 317 279 160 148 177 187 182 182 181 181 183 183 185 184 184 186 188 193 191 193 195 195 200 201 203 207 210 211
151 199 276 280 83 55 138 144 108 122 144 222 280 269 254 266 254 230 185 178 188 183 178 178 181 183 184 186 184 183 185 187 188 191 197 200 199 200 199 194 204 207 210 212
133 150 294 53 159 176 115 114 116 121 149 159 227 264 231 223 224 214 210 190 187 184 184 183 185 185 180 177 178 183 189 184 187 191 195 197 196 195 191 199 208 205 205 202
135 125 200 253 256 182 153 159 147 151 195 175 179 258 269 220 222 205 212 200 179 178 182 182 179 174 174 179 184 189 192 191 193 189 187 193 193 189 193 208 214 203 205 208
135 117 102 345 343 15 101 143 147 128 123 156 179 255 305 319 276 210 194 192 172 166 170 164 163 174 182 186 190 193 195 196 191 181 182 188 193 196 205 214 212 205 207 211
120 117 161 190 210 190 190 179 160 134 150 189 215 237 280 283 266 245 197 186 162 158 162 166 173 183 188 189 190 192 194 190 183 179 185 193 200 204 209 210 208 210 209 211
103 132 183 211 209 180 187 195 182 185 184 187 218 220 244 237 225 210 182 156 143 150 166 180 182 181 181 182 186 188 188 183 179 179 190 202 204 202 202 202 205 210 214 223
73 124 108 357 236 198 220 221 197 199 188 198 206 242 247 231 159 172 189 162 167 178 183 185 180 171 177 183 181 179 182 180 173 182 197 198 196 200 205 205 202 206 214 216
90 114 108 236 295 66 254 233 201 189 187 177 203 231 218 156 186 197 200 185 180 177 175 176 176 174 181 182 172 177 182 168 167 182 191 192 195 205 211 203 198 209 213 211
136 110 118 132 95 206 239 241 175 172 213 203 202 207 186 178 168 111 204 178 160 156 157 168 159 154 144 136 151 148 146 150 163 174 189 190 188 202 204 199 209 216 216 218
149 135 120 124 162 260 287 261 187 184 257 224 187 176 134 123 77 9 3 105 142 144 145 140 135 138 127 136 140 122 122 131 148 173 189 191 188 194 203 212 217 214 211 226
73 99 114 128 153 222 244 282 286 116 269 239 175 172 156 130 140 236 174 100 99 99 107 109 107 103 103 112 113 110 111 117 133 167 197 184 183 190 204 212 212 205 201 222
45 51 108 148 195 255 271 301 32 156 240 234 183 179 167 176 186 162 112 94 102 97 95 94 92 96 105 118 112 110 112 130 144 114 127 118 131 171 178 179 186 188 193 204
153 137 157 138 179 251 314 13 169 228 278 97 155 170 135 123 113 104 97 94 90 83 80 91 96 90 72 85 105 104 109 144 112 107 110 100 104 126 120 115 116 133 160 180
179 183 175 182 212 261 289 253 263 206 121 64 132 133 127 121 116 108 97 89 81 82 75 83 104 89 72 77 103 118 139 89 108 119 133 115 89 83 126 139 148 155 174 196
295 106 120 15 293 312 324 341 24 69 92 85 118 123 120 114 111 102 93 80 70 63 64 72 87 81 61 57 69 81 60 112 125 135 150 131 99 63 73 124 176 198 220 222
236 144 112 222 282 345 359 3 29 60 71 81 91 105 120 118 114 112 106 91 76 70 58 64 86 79 51 49 46 36 59 94 102 110 115 94 113 266 317 305 251 225 239 230
219 185 173 212 221 193 245 312 18 78 87 99 99 89 93 111 117 113 108 99 85 67 64 73 77 74 54 49 34 23 42 87 100 81 48 48 59 329 320 313 331 329 268 281